YSSYYBNA

Guest
Details From YSSY - Sydney Intl
To YBNA - Ballina
Flight Number -
Tags Routegen
Created
Modified
Stats Distance 342 nm / 634 km
Max Altitude 0 ft / 0 m
Waypoints 5
Social Downloads 21
Likes 0
Share

Download

Looking for another format? Having issues loading an existing format? Contact us
Advertisement - Login to hide

Notes

None

Route

YSSY -33.79_+151.13 BANDA -28.96_+153.08 YBNA

ID Type Via Altitude (ft/m) Position (lat/lon) Dist (leg/tot) Name
O YSSY APT - 0 / 0 -33.92936 / 151.17160 - / 0 nm
-33.79_+151.13 DME - 0 / 0 -33.78786 / 151.13497 8 / 8 nm
BANDA FIX - 0 / 0 -30.79972 / 152.57306 193 / 202 nm
-28.96_+153.08 DME - 0 / 0 -28.95891 / 153.07624 113 / 316 nm
O YBNA APT - 0 / 0 -28.83575 / 153.55181 26 / 342 nm

Altitude Profile

Advertisement - Login to hide

Weather


0- 5 10 15 20 25 30 35+ Temperature / °C

Clouds and Precipitation
Forecast for 2021-12-04 18:00 UTC. Updated 3 hours ago

Ground ~20,000 ft ~40,000 ft Winds

YSSY

Details ICAO YSSY (SYD)
Name Sydney Kingsford Smith Intl
Region Australia
Timezone Australia/Sydney (UTC+11.0)
Stats Elevation 21 ft / 6 m (AMSL)
Location -33.946100° 151.177000°
Runways 3
Magnetic Variation 12.643° E

METAR

YSSY 041900Z 16016KT 9999 -SHRA FEW020 SCT035 BKN048 18/10 Q1019

Decode

TAF

TAF YSSY 041704Z 0418/0600 16014KT 9999 -SHRA BKN035 FM042200 15014KT 9999 NSW BKN040 FM050000 14018KT 9999 SCT040 FM051000 12008KT 9999 BKN035 FM052200 08010KT 9999 SCT040

Decode

Departure Runways

ID Width Length Bearing (true/mag) Surface Threshold Overrun Markings Lighting
07 148 ft / 45 m 8,285 ft / 2,525 m 74.14° / 61.49° ASPHALT 0 ft / 0 m 489 ft / 149 m PREC-APP EDGE THRESHOLD REIL-OMNI
16L 148 ft / 45 m 8,018 ft / 2,444 m 167.85° / 155.21° ASPHALT 758 ft / 231 m 295 ft / 90 m PREC-APP CENTERLINE EDGE THRESHOLD ALSF-I
16R 148 ft / 45 m 13,029 ft / 3,971 m 167.86° / 155.22° ASPHALT 279 ft / 85 m 299 ft / 91 m PREC-APP CENTERLINE EDGE THRESHOLD ALSF-II TDZ
25 148 ft / 45 m 8,285 ft / 2,525 m 254.12° / 241.48° ASPHALT 331 ft / 101 m 197 ft / 60 m PREC-APP EDGE THRESHOLD
34L 148 ft / 45 m 13,029 ft / 3,971 m 347.85° / 335.21° ASPHALT 0 ft / 0 m 620 ft / 189 m PREC-APP CENTERLINE EDGE THRESHOLD ALSF-II TDZ
34R 148 ft / 45 m 8,018 ft / 2,444 m 347.85° / 335.21° ASPHALT 125 ft / 38 m 295 ft / 90 m PREC-APP CENTERLINE EDGE THRESHOLD ALSF-II

YBNA

Details ICAO YBNA (BNK)
Name Ballina/Byron Gateway
Region Australia
Timezone Australia/Sydney (UTC+11.0)
Stats Elevation 7 ft / 2 m (AMSL)
Location -28.833300° 153.561000°
Runways 1
Magnetic Variation 11.588° E

METAR

YBNA 041800Z AUTO 20012KT 9999 // BKN018 OVC023 21/19 Q1012

Decode

TAF

Not found

Destination Runways

ID Width Length Bearing (true/mag) Surface Threshold Overrun Markings Lighting
06 98 ft / 30 m 6,224 ft / 1,897 m 73.43° / 61.84° ASPHALT 0 ft / 0 m 0 ft / 0 m PREC-APP EDGE THRESHOLD
24 98 ft / 30 m 6,224 ft / 1,897 m 253.42° / 241.83° ASPHALT 0 ft / 0 m 0 ft / 0 m PREC-APP EDGE THRESHOLD

Popular Alternatives